Apalachicola, FL

12:04 AM EDT on April 29, 2017 (GMT -0400)
Apalachicola Municipal

Weather History for KAAF - October, 2012

Change the Weather History Date:

Tuesday, October 30, 2012

  Actual Average Record
Temperature  
Mean Temperature 55 °F 66 °F  
Max Temperature 66 °F 77 °F 86 °F (1984)
Min Temperature 43 °F 55 °F 40 °F (2008)
Degree Days  
Heating Degree Days 10    
Month to date heating degree days 26  
Since 1 July heating degree days 26  
Cooling Degree Days 0    
Month to date cooling degree days 230  
Year to date cooling degree days 2744  
Growing Degree Days 4 (Base 50)    
Moisture  
Dew Point 32 °F    
Average Humidity 40    
Maximum Humidity 58    
Minimum Humidity 22    
Precipitation  
Precipitation 0.00 in 0.10 in 4.50 in (1985)
Month to date precipitation 0.65 4.10  
Year to date precipitation 55.36 50.77  
Sea Level Pressure  
Sea Level Pressure 29.94 in    
Wind  
Wind Speed 12 mph (NW)    
Max Wind Speed 25 mph    
Max Gust Speed 32 mph    
Visibility 10 miles    
Events      
T = Trace of Precipitation, MM = Missing Value Source: NWS Daily Summary

Daily Weather History Graph

Daily Weather History Graph

Search for Another Location

Airport or City:

Trip Planner

Search our weather history database for the weather conditions in past years. The results will help you decide how hot, cold, wet, or windy it might be!

Date:

Astronomy

Oct. 30, 2012 Rise Set
Actual Time 7:52 AM EDT 6:54 PM EDT
Civil Twilight 7:27 AM EDT 7:19 PM EDT
Nautical Twilight 6:59 AM EDT 7:47 PM EDT
Astronomical Twilight 6:31 AM EDT 8:15 PM EDT
Moon 7:30 PM EDT (10/30) 8:33 AM EDT (10/30)
Length of Visible Light 11h 51m
Length of Day
11h 02m
Full, 99% of the Moon is Illuminated
Oct 30
Full
Nov 6
Last Quarter
Nov 13
New
Nov 20
First Quarter
Nov 28
Full

Hourly Weather History & Observations

Time (EDT) Temp. Windchill Dew Point Humidity Pressure Visibility Wind Dir Wind Speed Gust Speed Precip Events Conditions
12:53 AM 48.9 °F - 32.0 °F 52% 29.95 in 10.0 mi NNW 13.8 mph 19.6 mph N/A   Clear
1:53 AM 48.0 °F - 32.0 °F 54% 29.94 in 10.0 mi NNW 11.5 mph - N/A   Clear
2:53 AM 46.0 °F 41.0 °F 30.9 °F 56% 29.94 in 10.0 mi NW 10.4 mph - N/A   Clear
3:53 AM 46.0 °F 41.4 °F 30.0 °F 54% 29.93 in 10.0 mi NNW 9.2 mph - N/A   Clear
4:53 AM 43.0 °F 38.8 °F 28.9 °F 58% 29.93 in 10.0 mi NNW 6.9 mph - N/A   Clear
5:53 AM 45.0 °F 39.7 °F 28.9 °F 53% 29.94 in 10.0 mi NW 10.4 mph - N/A   Clear
6:53 AM 45.0 °F 38.9 °F 28.0 °F 52% 29.95 in 10.0 mi WNW 12.7 mph - N/A   Clear
7:53 AM 44.1 °F 39.0 °F 30.0 °F 58% 29.96 in 10.0 mi WNW 9.2 mph - N/A   Clear
8:53 AM 48.9 °F - 30.9 °F 50% 29.98 in 10.0 mi NW 11.5 mph - N/A   Clear
9:53 AM 52.0 °F - 30.0 °F 43% 29.99 in 10.0 mi NW 17.3 mph 24.2 mph N/A   Clear
10:53 AM 55.9 °F - 27.0 °F 33% 29.98 in 10.0 mi NNW 11.5 mph - N/A   Clear
11:53 AM 59.0 °F - 23.0 °F 25% 29.97 in 10.0 mi NNW 17.3 mph 31.1 mph N/A   Clear
12:53 PM 61.0 °F - 24.1 °F 24% 29.96 in 10.0 mi NNW 20.7 mph 32.2 mph N/A   Clear
1:53 PM 64.0 °F - 25.0 °F 23% 29.93 in 10.0 mi NW 19.6 mph 26.5 mph N/A   Clear
2:53 PM 64.0 °F - 27.0 °F 25% 29.91 in 10.0 mi WNW 18.4 mph 25.3 mph N/A   Clear
3:53 PM 64.9 °F - 28.9 °F 26% 29.90 in 10.0 mi NW 17.3 mph 25.3 mph N/A   Clear
4:53 PM 64.9 °F - 35.1 °F 33% 29.90 in 10.0 mi WNW 17.3 mph 25.3 mph N/A   Clear
5:53 PM 63.0 °F - 37.0 °F 38% 29.90 in 10.0 mi WNW 17.3 mph 21.9 mph N/A   Clear
6:53 PM 60.1 °F - 39.9 °F 47% 29.91 in 10.0 mi West 6.9 mph - N/A   Clear
7:53 PM 55.9 °F - 39.9 °F 55% 29.92 in 10.0 mi WNW 4.6 mph - N/A   Clear
8:53 PM 55.0 °F - 39.0 °F 55% 29.94 in 10.0 mi WNW 4.6 mph - N/A   Clear
9:53 PM 55.9 °F - 37.0 °F 49% 29.96 in 10.0 mi WNW 5.8 mph - N/A   Clear
10:53 PM 54.0 °F - 36.0 °F 51% 29.98 in 10.0 mi NW 6.9 mph - N/A   Clear
11:53 PM 54.0 °F - 37.0 °F 53% 29.98 in 10.0 mi NW 4.6 mph - N/A   Clear